Location: Potomac
(46.8816°N, 113.5795°W)
Time: 11:42:12
(UTC+00:00)

AO-91 - Pass Details

Date: 03 July 2022
Orbit: 450 x 797 km, 97.7° (Epoch: 12 August)

Event Time Altitude Azimuth Distance (km) Brightness Sun altitude
Rises 06:21:41 0° 14° (NNE) 2,513 ? -18.0°
Reaches altitude 10° 06:23:46 10° 16° (NNE) 1,611 ? -18.1°
Maximum altitude 06:27:10 75° 102° (ESE) 474 ? -18.3°
Enters shadow 06:27:42 58° 166° (SSE) 530 ? -18.4°
